www.cux-wetter.de
Wetterdaten: Freitag, 10.10.2008
Datum Zeit Temp. A. Feuchte A. Luftdruck Regen Wind Richtung Richtung Sonnenschein Solar Taupunkt Windchill Windben
10.10.2008 00:01 8,6 C 92 % 1030,5 hPa 0,0 l/m 3,3 km/h (1 Bft) W 275 0 min 0 W/m 7,4 C 8,6 C 3,3 km/h (1 Bft)
10.10.2008 00:05 8,6 C 92 % 1030,5 hPa 0,0 l/m 1,8 km/h (1 Bft) W 260 0 min 0 W/m 7,4 C 8,6 C 1,8 km/h (1 Bft)
10.10.2008 00:10 8,5 C 92 % 1030,5 hPa 0,0 l/m 0,2 km/h (0 Bft) W 260 0 min 0 W/m 7,3 C 8,5 C 0,2 km/h (0 Bft)
10.10.2008 00:15 8,5 C 92 % 1030,5 hPa 0,0 l/m 0,1 km/h (0 Bft) W 260 0 min 0 W/m 7,3 C 8,5 C 0,1 km/h (0 Bft)
10.10.2008 00:20 8,5 C 92 % 1030,5 hPa 0,0 l/m 0,7 km/h (0 Bft) W 260 0 min 0 W/m 7,3 C 8,5 C 0,7 km/h (0 Bft)
10.10.2008 00:26 8,5 C 92 % 1030,5 hPa 0,0 l/m 0,0 km/h (0 Bft) W 260 0 min 0 W/m 7,3 C 8,5 C 0,0 km/h (0 Bft)
10.10.2008 00:31 8,4 C 92 % 1030,5 hPa 0,0 l/m 0,0 km/h (0 Bft) W 260 0 min 0 W/m 7,2 C 8,4 C 0,0 km/h (0 Bft)
10.10.2008 00:36 8,4 C 92 % 1030,5 hPa 0,0 l/m 0,0 km/h (0 Bft) W 260 0 min 0 W/m 7,2 C 8,4 C 0,0 km/h (0 Bft)
10.10.2008 00:41 8,4 C 92 % 1030,5 hPa 0,0 l/m 0,0 km/h (0 Bft) W 260 0 min 0 W/m 7,2 C 8,4 C 0,0 km/h (0 Bft)
10.10.2008 00:45 8,3 C 92 % 1030,5 hPa 0,0 l/m 0,4 km/h (0 Bft) W 260 0 min 0 W/m 7,1 C 8,3 C 0,4 km/h (0 Bft)
10.10.2008 00:50 8,2 C 92 % 1030,5 hPa 0,0 l/m 1,8 km/h (1 Bft) W 260 0 min 0 W/m 7,0 C 8,2 C 1,8 km/h (1 Bft)
10.10.2008 00:55 8,2 C 92 % 1030,5 hPa 0,0 l/m 1,9 km/h (1 Bft) W 260 0 min 0 W/m 7,0 C 8,2 C 1,9 km/h (1 Bft)
10.10.2008 01:00 8,2 C 93 % 1030,5 hPa 0,0 l/m 1,2 km/h (1 Bft) W 260 0 min 0 W/m 7,1 C 8,2 C 1,2 km/h (1 Bft)
10.10.2008 01:06 8,1 C 93 % 1030,5 hPa 0,0 l/m 1,5 km/h (1 Bft) W 260 0 min 0 W/m 7,0 C 8,1 C 1,5 km/h (1 Bft)
10.10.2008 01:11 8,1 C 93 % 1030,5 hPa 0,0 l/m 0,0 km/h (0 Bft) W 260 0 min 0 W/m 7,0 C 8,1 C 0,0 km/h (0 Bft)
10.10.2008 01:15 8,0 C 93 % 1030,5 hPa 0,0 l/m 4,9 km/h (1 Bft) W 260 0 min 0 W/m 6,9 C 8,0 C 4,9 km/h (1 Bft)
10.10.2008 01:20 8,1 C 93 % 1030,5 hPa 0,0 l/m 5,0 km/h (1 Bft) W-SW 250 0 min 0 W/m 7,0 C 8,1 C 5,0 km/h (1 Bft)
10.10.2008 01:25 8,1 C 93 % 1030,5 hPa 0,0 l/m 5,7 km/h (2 Bft) W-SW 245 0 min 0 W/m 7,0 C 8,1 C 5,7 km/h (2 Bft)
10.10.2008 01:30 8,1 C 93 % 1030,5 hPa 0,0 l/m 2,5 km/h (1 Bft) W-SW 245 0 min 0 W/m 7,0 C 8,1 C 2,5 km/h (1 Bft)
10.10.2008 01:35 8,1 C 93 % 1030,5 hPa 0,0 l/m 3,1 km/h (1 Bft) W-SW 245 0 min 0 W/m 7,0 C 8,1 C 3,1 km/h (1 Bft)
10.10.2008 01:41 8,1 C 93 % 1030,5 hPa 0,0 l/m 3,5 km/h (1 Bft) W-SW 245 0 min 0 W/m 7,0 C 8,1 C 3,5 km/h (1 Bft)
10.10.2008 01:46 8,2 C 93 % 1030,5 hPa 0,0 l/m 3,0 km/h (1 Bft) W-SW 245 0 min 0 W/m 7,1 C 8,2 C 3,0 km/h (1 Bft)
10.10.2008 01:51 8,3 C 94 % 1030,5 hPa 0,0 l/m 4,5 km/h (1 Bft) SW 230 0 min 0 W/m 7,4 C 8,3 C 4,5 km/h (1 Bft)
10.10.2008 01:56 8,4 C 94 % 1030,5 hPa 0,0 l/m 4,6 km/h (1 Bft) SW 225 0 min 0 W/m 7,5 C 8,4 C 4,6 km/h (1 Bft)
10.10.2008 02:01 8,4 C 94 % 1030,5 hPa 0,0 l/m 5,2 km/h (1 Bft) SW 230 0 min 0 W/m 7,5 C 8,4 C 5,2 km/h (1 Bft)
10.10.2008 02:05 8,4 C 94 % 1030,5 hPa 0,0 l/m 3,7 km/h (1 Bft) SW 230 0 min 0 W/m 7,5 C 8,4 C 3,7 km/h (1 Bft)
10.10.2008 02:11 8,4 C 94 % 1030,5 hPa 0,0 l/m 0,1 km/h (0 Bft) SW 230 0 min 0 W/m 7,5 C 8,4 C 0,1 km/h (0 Bft)
10.10.2008 02:16 8,4 C 94 % 1031,5 hPa 0,0 l/m 0,9 km/h (0 Bft) SW 230 0 min 0 W/m 7,5 C 8,4 C 0,9 km/h (0 Bft)
10.10.2008 02:21 8,4 C 94 % 1031,5 hPa 0,0 l/m 2,8 km/h (1 Bft) SW 230 0 min 0 W/m 7,5 C 8,4 C 2,8 km/h (1 Bft)
10.10.2008 02:26 8,3 C 94 % 1031,5 hPa 0,0 l/m 2,4 km/h (1 Bft) SW 230 0 min 0 W/m 7,4 C 8,3 C 2,4 km/h (1 Bft)
10.10.2008 02:30 8,2 C 94 % 1031,5 hPa 0,0 l/m 2,6 km/h (1 Bft) SW 230 0 min 0 W/m 7,3 C 8,2 C 2,6 km/h (1 Bft)
10.10.2008 02:35 8,2 C 94 % 1031,5 hPa 0,0 l/m 2,4 km/h (1 Bft) SW 230 0 min 0 W/m 7,3 C 8,2 C 2,4 km/h (1 Bft)
10.10.2008 02:40 8,2 C 94 % 1031,5 hPa 0,0 l/m 0,7 km/h (0 Bft) SW 230 0 min 0 W/m 7,3 C 8,2 C 0,7 km/h (0 Bft)
10.10.2008 02:45 8,2 C 94 % 1031,5 hPa 0,0 l/m 2,9 km/h (1 Bft) SW 230 0 min 0 W/m 7,3 C 8,2 C 2,9 km/h (1 Bft)
10.10.2008 02:50 8,2 C 94 % 1031,5 hPa 0,0 l/m 3,2 km/h (1 Bft) SW 230 0 min 0 W/m 7,3 C 8,2 C 3,2 km/h (1 Bft)
10.10.2008 02:55 8,3 C 94 % 1031,5 hPa 0,0 l/m 4,4 km/h (1 Bft) SW 230 0 min 0 W/m 7,4 C 8,3 C 4,4 km/h (1 Bft)
10.10.2008 03:01 8,4 C 94 % 1031,5 hPa 0,0 l/m 2,8 km/h (1 Bft) SW 230 0 min 0 W/m 7,5 C 8,4 C 2,8 km/h (1 Bft)
10.10.2008 03:05 8,4 C 94 % 1031,5 hPa 0,0 l/m 3,9 km/h (1 Bft) SW 230 0 min 0 W/m 7,5 C 8,4 C 3,9 km/h (1 Bft)
10.10.2008 03:10 8,4 C 94 % 1031,5 hPa 0,0 l/m 3,9 km/h (1 Bft) SW 230 0 min 0 W/m 7,5 C 8,4 C 3,9 km/h (1 Bft)
10.10.2008 03:15 8,3 C 94 % 1031,5 hPa 0,0 l/m 2,8 km/h (1 Bft) SW 230 0 min 0 W/m 7,4 C 8,3 C 2,8 km/h (1 Bft)
10.10.2008 03:20 8,3 C 94 % 1031,5 hPa 0,0 l/m 4,0 km/h (1 Bft) SW 230 0 min 0 W/m 7,4 C 8,3 C 4,0 km/h (1 Bft)
10.10.2008 03:25 8,3 C 94 % 1031,5 hPa 0,0 l/m 2,9 km/h (1 Bft) SW 230 0 min 0 W/m 7,4 C 8,3 C 2,9 km/h (1 Bft)
10.10.2008 03:31 8,3 C 94 % 1031,5 hPa 0,0 l/m 3,3 km/h (1 Bft) SW 230 0 min 0 W/m 7,4 C 8,3 C 3,3 km/h (1 Bft)
10.10.2008 03:36 8,3 C 94 % 1031,5 hPa 0,0 l/m 4,4 km/h (1 Bft) SW 230 0 min 0 W/m 7,4 C 8,3 C 4,4 km/h (1 Bft)
10.10.2008 03:41 8,4 C 94 % 1031,5 hPa 0,0 l/m 4,0 km/h (1 Bft) SW 230 0 min 0 W/m 7,5 C 8,4 C 4,0 km/h (1 Bft)
10.10.2008 03:46 8,4 C 94 % 1031,5 hPa 0,0 l/m 5,6 km/h (2 Bft) SW 225 0 min 0 W/m 7,5 C 8,4 C 5,6 km/h (2 Bft)
10.10.2008 03:50 8,4 C 94 % 1031,5 hPa 0,0 l/m 4,8 km/h (1 Bft) SW 225 0 min 0 W/m 7,5 C 8,4 C 4,8 km/h (1 Bft)
10.10.2008 03:55 8,4 C 94 % 1031,5 hPa 0,0 l/m 5,1 km/h (1 Bft) SW 225 0 min 0 W/m 7,5 C 8,4 C 5,1 km/h (1 Bft)
10.10.2008 04:00 8,3 C 94 % 1031,5 hPa 0,0 l/m 3,9 km/h (1 Bft) SW 225 0 min 0 W/m 7,4 C 8,3 C 3,9 km/h (1 Bft)
10.10.2008 04:06 8,2 C 94 % 1031,5 hPa 0,0 l/m 5,2 km/h (1 Bft) SW 225 0 min 0 W/m 7,3 C 8,2 C 5,2 km/h (1 Bft)
10.10.2008 04:11 8,2 C 94 % 1030,5 hPa 0,0 l/m 6,0 km/h (2 Bft) SW 225 0 min 0 W/m 7,3 C 8,2 C 6,0 km/h (2 Bft)
10.10.2008 04:15 8,1 C 94 % 1030,5 hPa 0,0 l/m 5,7 km/h (2 Bft) SW 225 0 min 0 W/m 7,2 C 8,1 C 5,7 km/h (2 Bft)
10.10.2008 04:20 8,1 C 94 % 1030,5 hPa 0,0 l/m 3,8 km/h (1 Bft) SW 225 0 min 0 W/m 7,2 C 8,1 C 3,8 km/h (1 Bft)
10.10.2008 04:25 8,0 C 94 % 1030,5 hPa 0,0 l/m 3,1 km/h (1 Bft) SW 225 0 min 0 W/m 7,1 C 8,0 C 3,1 km/h (1 Bft)
10.10.2008 04:30 8,0 C 94 % 1030,5 hPa 0,0 l/m 4,0 km/h (1 Bft) SW 225 0 min 0 W/m 7,1 C 8,0 C 4,0 km/h (1 Bft)
10.10.2008 04:35 8,0 C 94 % 1030,5 hPa 0,0 l/m 4,5 km/h (1 Bft) SW 225 0 min 0 W/m 7,1 C 8,0 C 4,5 km/h (1 Bft)
10.10.2008 04:40 8,0 C 94 % 1030,5 hPa 0,0 l/m 4,8 km/h (1 Bft) SW 220 0 min 0 W/m 7,1 C 8,0 C 4,8 km/h (1 Bft)
10.10.2008 04:46 7,9 C 94 % 1030,5 hPa 0,0 l/m 5,0 km/h (1 Bft) S-SW 210 0 min 0 W/m 7,0 C 7,9 C 5,0 km/h (1 Bft)
10.10.2008 04:51 8,0 C 94 % 1030,5 hPa 0,0 l/m 6,3 km/h (2 Bft) SW 235 0 min 0 W/m 7,1 C 8,0 C 6,3 km/h (2 Bft)
10.10.2008 04:56 8,0 C 94 % 1030,5 hPa 0,0 l/m 5,0 km/h (1 Bft) S-SW 210 0 min 0 W/m 7,1 C 8,0 C 5,0 km/h (1 Bft)
10.10.2008 05:01 8,0 C 94 % 1030,5 hPa 0,0 l/m 5,3 km/h (1 Bft) SW 220 0 min 0 W/m 7,1 C 8,0 C 5,3 km/h (1 Bft)
10.10.2008 05:05 8,0 C 94 % 1030,5 hPa 0,0 l/m 6,8 km/h (2 Bft) SW 225 0 min 0 W/m 7,1 C 7,7 C 6,8 km/h (2 Bft)
10.10.2008 05:10 8,0 C 94 % 1030,5 hPa 0,0 l/m 6,9 km/h (2 Bft) S-SW 210 0 min 0 W/m 7,1 C 7,6 C 6,9 km/h (2 Bft)
10.10.2008 05:16 7,9 C 94 % 1030,5 hPa 0,0 l/m 8,5 km/h (2 Bft) S-SW 205 0 min 0 W/m 7,0 C 6,3 C 8,5 km/h (2 Bft)
10.10.2008 05:21 7,9 C 94 % 1030,5 hPa 0,0 l/m 9,2 km/h (2 Bft) S-SW 210 0 min 0 W/m 7,0 C 5,8 C 9,2 km/h (2 Bft)
10.10.2008 05:26 8,0 C 95 % 1029,5 hPa 0,0 l/m 8,5 km/h (2 Bft) SW 215 0 min 0 W/m 7,2 C 6,4 C 8,5 km/h (2 Bft)
10.10.2008 05:30 8,0 C 95 % 1029,5 hPa 0,0 l/m 7,8 km/h (2 Bft) SW 215 0 min 0 W/m 7,2 C 6,9 C 7,8 km/h (2 Bft)
10.10.2008 05:35 8,0 C 95 % 1030,5 hPa 0,0 l/m 7,9 km/h (2 Bft) W-SW 240 0 min 0 W/m 7,2 C 6,8 C 7,9 km/h (2 Bft)
10.10.2008 05:40 8,0 C 95 % 1030,5 hPa 0,0 l/m 4,3 km/h (1 Bft) SW 235 0 min 0 W/m 7,2 C 8,0 C 4,3 km/h (1 Bft)
10.10.2008 05:45 8,0 C 95 % 1030,5 hPa 0,0 l/m 3,6 km/h (1 Bft) SW 225 0 min 0 W/m 7,2 C 8,0 C 3,6 km/h (1 Bft)
10.10.2008 05:50 7,9 C 95 % 1030,5 hPa 0,0 l/m 3,6 km/h (1 Bft) SW 215 0 min 0 W/m 7,1 C 7,9 C 3,6 km/h (1 Bft)
10.10.2008 05:56 7,8 C 95 % 1030,5 hPa 0,0 l/m 4,8 km/h (1 Bft) S-SW 205 0 min 0 W/m 7,0 C 7,8 C 4,8 km/h (1 Bft)
10.10.2008 06:01 7,8 C 95 % 1030,5 hPa 0,0 l/m 2,8 km/h (1 Bft) SW 220 0 min 0 W/m 7,0 C 7,8 C 2,8 km/h (1 Bft)
10.10.2008 06:05 7,8 C 95 % 1030,5 hPa 0,0 l/m 4,3 km/h (1 Bft) SW 220 0 min 0 W/m 7,0 C 7,8 C 4,3 km/h (1 Bft)
10.10.2008 06:10 7,9 C 95 % 1030,5 hPa 0,0 l/m 3,6 km/h (1 Bft) SW 225 0 min 0 W/m 7,1 C 7,9 C 3,6 km/h (1 Bft)
10.10.2008 06:15 7,9 C 95 % 1030,5 hPa 0,0 l/m 5,6 km/h (2 Bft) SW 230 0 min 0 W/m 7,1 C 7,9 C 5,6 km/h (2 Bft)
10.10.2008 06:21 8,0 C 95 % 1030,5 hPa 0,0 l/m 5,1 km/h (1 Bft) S-SW 205 0 min 0 W/m 7,2 C 8,0 C 5,1 km/h (1 Bft)
10.10.2008 06:26 8,0 C 95 % 1030,5 hPa 0,0 l/m 3,4 km/h (1 Bft) SW 215 0 min 0 W/m 7,2 C 8,0 C 3,4 km/h (1 Bft)
10.10.2008 06:31 7,9 C 95 % 1030,5 hPa 0,0 l/m 6,8 km/h (2 Bft) S-SW 210 0 min 0 W/m 7,1 C 7,6 C 6,8 km/h (2 Bft)
10.10.2008 06:36 7,8 C 95 % 1030,5 hPa 0,0 l/m 5,3 km/h (1 Bft) S-SW 205 0 min 0 W/m 7,0 C 7,8 C 5,3 km/h (1 Bft)
10.10.2008 06:40 7,8 C 95 % 1030,5 hPa 0,0 l/m 4,7 km/h (1 Bft) SW 215 0 min 0 W/m 7,0 C 7,8 C 4,7 km/h (1 Bft)
10.10.2008 06:45 7,7 C 95 % 1030,5 hPa 0,0 l/m 5,0 km/h (1 Bft) SW 220 0 min 0 W/m 7,0 C 7,7 C 5,0 km/h (1 Bft)
10.10.2008 06:50 7,7 C 95 % 1029,5 hPa 0,0 l/m 6,3 km/h (2 Bft) SW 215 0 min 0 W/m 7,0 C 7,7 C 6,3 km/h (2 Bft)
10.10.2008 06:55 7,7 C 95 % 1029,5 hPa 0,0 l/m 5,3 km/h (1 Bft) SW 215 0 min 0 W/m 7,0 C 7,7 C 5,3 km/h (1 Bft)
10.10.2008 07:00 7,7 C 95 % 1030,5 hPa 0,0 l/m 5,1 km/h (1 Bft) SW 230 0 min 0 W/m 7,0 C 7,7 C 5,1 km/h (1 Bft)
10.10.2008 07:05 7,7 C 95 % 1030,5 hPa 0,0 l/m 4,8 km/h (1 Bft) SW 230 0 min 0 W/m 7,0 C 7,7 C 4,8 km/h (1 Bft)
10.10.2008 07:10 7,6 C 95 % 1030,5 hPa 0,0 l/m 5,8 km/h (2 Bft) SW 225 0 min 0 W/m 6,9 C 7,6 C 5,8 km/h (2 Bft)
10.10.2008 07:15 7,6 C 95 % 1030,5 hPa 0,0 l/m 5,2 km/h (1 Bft) S-SW 205 0 min 0 W/m 6,9 C 7,6 C 5,2 km/h (1 Bft)
10.10.2008 07:20 8,8 C 96 % 1030,5 hPa 0,0 l/m 6,9 km/h (2 Bft) SW 220 0 min 0 W/m 8,2 C 8,4 C 6,9 km/h (2 Bft)
10.10.2008 07:25 9,5 C 95 % 1030,5 hPa 0,0 l/m 5,9 km/h (2 Bft) SW 225 0 min 0 W/m 8,7 C 9,5 C 5,9 km/h (2 Bft)
10.10.2008 07:31 9,6 C 96 % 1030,5 hPa 0,0 l/m 3,0 km/h (1 Bft) SW 215 0 min 0 W/m 9,0 C 9,6 C 3,0 km/h (1 Bft)
10.10.2008 07:36 9,8 C 95 % 1030,5 hPa 0,0 l/m 6,8 km/h (2 Bft) S-SW 210 0 min 0 W/m 9,0 C 9,5 C 6,8 km/h (2 Bft)
10.10.2008 07:41 10,0 C 95 % 1030,5 hPa 0,0 l/m 7,4 km/h (2 Bft) S-SW 205 0 min 0 W/m 9,2 C 9,3 C 7,4 km/h (2 Bft)
10.10.2008 07:45 10,0 C 94 % 1030,5 hPa 0,0 l/m 6,9 km/h (2 Bft) SW 220 0 min 0 W/m 9,1 C 9,6 C 6,9 km/h (2 Bft)
10.10.2008 07:50 9,7 C 93 % 1030,5 hPa 0,0 l/m 6,7 km/h (2 Bft) SW 235 0 min 0 W/m 8,6 C 9,5 C 6,7 km/h (2 Bft)
10.10.2008 07:55 9,7 C 92 % 1030,5 hPa 0,0 l/m 8,6 km/h (2 Bft) W-SW 240 0 min 0 W/m 8,5 C 8,1 C 8,6 km/h (2 Bft)
10.10.2008 08:00 9,8 C 92 % 1030,5 hPa 0,0 l/m 9,8 km/h (2 Bft) W-SW 240 0 min 0 W/m 8,6 C 7,5 C 9,8 km/h (2 Bft)
10.10.2008 08:06 9,9 C 92 % 1030,5 hPa 0,0 l/m 9,0 km/h (2 Bft) W-SW 245 0 min 0 W/m 8,7 C 8,1 C 9,0 km/h (2 Bft)
10.10.2008 08:10 10,1 C 92 % 1030,5 hPa 0,0 l/m 8,3 km/h (2 Bft) W-SW 245 0 min 0 W/m 8,9 C 8,8 C 8,3 km/h (2 Bft)
10.10.2008 08:15 10,3 C 92 % 1030,5 hPa 0,0 l/m 10,5 km/h (2 Bft) W-SW 250 0 min 0 W/m 9,1 C 7,6 C 10,5 km/h (2 Bft)
10.10.2008 08:20 10,3 C 92 % 1030,5 hPa 0,0 l/m 8,0 km/h (2 Bft) W-SW 245 0 min 0 W/m 9,1 C 9,2 C 8,0 km/h (2 Bft)
10.10.2008 08:25 10,7 C 92 % 1030,5 hPa 0,0 l/m 12,5 km/h (2 Bft) SW 230 0 min 0 W/m 9,5 C 7,1 C 12,5 km/h (2 Bft)
10.10.2008 08:30 10,8 C 90 % 1029,5 hPa 0,0 l/m 9,0 km/h (2 Bft) W-SW 250 0 min 0 W/m 9,2 C 9,1 C 9,0 km/h (2 Bft)
10.10.2008 08:36 10,9 C 90 % 1029,5 hPa 0,0 l/m 10,1 km/h (2 Bft) W-SW 245 0 min 0 W/m 9,3 C 8,5 C 10,1 km/h (2 Bft)
10.10.2008 08:41 10,7 C 89 % 1030,5 hPa 0,0 l/m 10,1 km/h (2 Bft) W-SW 245 0 min 0 W/m 9,0 C 8,3 C 10,1 km/h (2 Bft)
10.10.2008 08:46 10,2 C 90 % 1030,5 hPa 0,0 l/m 11,3 km/h (2 Bft) W-SW 240 0 min 0 W/m 8,6 C 7,1 C 11,3 km/h (2 Bft)
10.10.2008 08:51 10,1 C 90 % 1029,5 hPa 0,0 l/m 8,3 km/h (2 Bft) W-SW 245 0 min 0 W/m 8,5 C 8,8 C 8,3 km/h (2 Bft)
10.10.2008 08:55 10,0 C 92 % 1029,5 hPa 0,0 l/m 11,5 km/h (2 Bft) W-SW 240 0 min 0 W/m 8,8 C 6,8 C 11,5 km/h (2 Bft)
10.10.2008 09:00 10,5 C 92 % 1029,5 hPa 0,0 l/m 10,8 km/h (2 Bft) W 260 0 min 0 W/m 9,3 C 7,7 C 10,8 km/h (2 Bft)
10.10.2008 09:06 10,7 C 91 % 1029,5 hPa 0,0 l/m 12,1 km/h (2 Bft) SW 235 0 min 0 W/m 9,3 C 7,3 C 12,1 km/h (2 Bft)
10.10.2008 09:11 10,8 C 90 % 1029,5 hPa 0,0 l/m 15,6 km/h (3 Bft) W-SW 245 0 min 0 W/m 9,2 C 5,9 C 15,6 km/h (3 Bft)
10.10.2008 09:15 10,8 C 88 % 1029,5 hPa 0,0 l/m 17,5 km/h (3 Bft) W-SW 250 0 min 0 W/m 8,9 C 5,2 C 17,5 km/h (3 Bft)
10.10.2008 09:20 11,0 C 88 % 1029,5 hPa 0,0 l/m 16,7 km/h (3 Bft) W-SW 250 0 min 0 W/m 9,1 C 5,7 C 16,7 km/h (3 Bft)
10.10.2008 09:25 11,0 C 88 % 1029,5 hPa 0,0 l/m 15,7 km/h (3 Bft) W-SW 245 0 min 0 W/m 9,1 C 6,1 C 15,7 km/h (3 Bft)
10.10.2008 09:30 11,2 C 88 % 1029,5 hPa 0,0 l/m 15,1 km/h (3 Bft) W-SW 250 0 min 0 W/m 9,3 C 6,5 C 15,1 km/h (3 Bft)
10.10.2008 09:35 11,3 C 87 % 1029,5 hPa 0,0 l/m 18,8 km/h (3 Bft) W-SW 245 0 min 0 W/m 9,2 C 5,3 C 18,8 km/h (3 Bft)
10.10.2008 09:41 11,5 C 87 % 1029,5 hPa 0,0 l/m 19,4 km/h (3 Bft) W-SW 245 0 min 0 W/m 9,4 C 5,4 C 19,4 km/h (3 Bft)
10.10.2008 09:46 11,6 C 85 % 1029,5 hPa 0,0 l/m 18,3 km/h (3 Bft) W-SW 240 0 min 0 W/m 9,2 C 5,9 C 18,3 km/h (3 Bft)
10.10.2008 09:51 11,6 C 85 % 1029,5 hPa 0,0 l/m 16,8 km/h (3 Bft) W-SW 250 0 min 0 W/m 9,2 C 6,4 C 16,8 km/h (3 Bft)
10.10.2008 09:55 11,6 C 85 % 1030,5 hPa 0,0 l/m 19,3 km/h (3 Bft) W-SW 250 0 min 0 W/m 9,2 C 5,6 C 19,3 km/h (3 Bft)
10.10.2008 10:00 11,8 C 84 % 1030,5 hPa 0,0 l/m 15,7 km/h (3 Bft) W-SW 240 0 min 0 W/m 9,2 C 7,0 C 15,7 km/h (3 Bft)
10.10.2008 10:06 12,0 C 85 % 1030,5 hPa 0,0 l/m 16,1 km/h (3 Bft) W-SW 245 0 min 0 W/m 9,6 C 7,1 C 16,1 km/h (3 Bft)
10.10.2008 10:11 12,1 C 84 % 1030,5 hPa 0,0 l/m 19,4 km/h (3 Bft) W-SW 250 0 min 0 W/m 9,5 C 6,2 C 19,4 km/h (3 Bft)
10.10.2008 10:15 12,2 C 84 % 1030,5 hPa 0,0 l/m 18,6 km/h (3 Bft) W-SW 240 0 min 0 W/m 9,6 C 6,6 C 18,6 km/h (3 Bft)
10.10.2008 10:20 12,4 C 83 % 1030,5 hPa 0,0 l/m 21,6 km/h (4 Bft) W-SW 250 0 min 0 W/m 9,6 C 5,9 C 21,6 km/h (4 Bft)
10.10.2008 10:25 12,5 C 83 % 1029,5 hPa 0,0 l/m 22,1 km/h (4 Bft) SW 235 0 min 0 W/m 9,7 C 5,9 C 22,1 km/h (4 Bft)
10.10.2008 10:30 12,5 C 82 % 1029,5 hPa 0,0 l/m 28,0 km/h (5 Bft) W-SW 250 0 min 0 W/m 9,5 C 4,6 C 28,0 km/h (5 Bft)
10.10.2008 10:36 12,6 C 81 % 1029,5 hPa 0,0 l/m 19,1 km/h (3 Bft) W-SW 250 0 min 0 W/m 9,4 C 6,9 C 19,1 km/h (3 Bft)
10.10.2008 10:41 12,7 C 81 % 1029,5 hPa 0,0 l/m 19,6 km/h (3 Bft) W-SW 240 0 min 0 W/m 9,5 C 6,9 C 19,6 km/h (3 Bft)
10.10.2008 10:46 12,6 C 81 % 1029,5 hPa 0,0 l/m 22,3 km/h (4 Bft) W-SW 250 0 min 0 W/m 9,4 C 6,0 C 22,3 km/h (4 Bft)
10.10.2008 10:50 12,7 C 81 % 1029,5 hPa 0,0 l/m 17,9 km/h (3 Bft) W-SW 250 0 min 0 W/m 9,5 C 7,4 C 17,9 km/h (3 Bft)
10.10.2008 10:55 12,8 C 80 % 1029,5 hPa 0,0 l/m 26,2 km/h (4 Bft) W-SW 250 0 min 0 W/m 9,4 C 5,4 C 26,2 km/h (4 Bft)
10.10.2008 11:00 12,9 C 79 % 1029,5 hPa 0,0 l/m 20,0 km/h (4 Bft) W-SW 250 0 min 0 W/m 9,3 C 7,0 C 20,0 km/h (4 Bft)
10.10.2008 11:06 13,0 C 78 % 1029,5 hPa 0,0 l/m 18,3 km/h (3 Bft) W 260 0 min 0 W/m 9,3 C 7,7 C 18,3 km/h (3 Bft)
10.10.2008 11:11 13,1 C 78 % 1029,5 hPa 0,0 l/m 23,7 km/h (4 Bft) W-SW 255 0 min 0 W/m 9,4 C 6,3 C 23,7 km/h (4 Bft)
10.10.2008 11:15 13,2 C 77 % 1029,5 hPa 0,0 l/m 22,6 km/h (4 Bft) W 260 0 min 0 W/m 9,3 C 6,7 C 22,6 km/h (4 Bft)
10.10.2008 11:20 13,2 C 76 % 1029,5 hPa 0,0 l/m 26,8 km/h (4 Bft) W-SW 245 0 min 0 W/m 9,1 C 5,8 C 26,8 km/h (4 Bft)
10.10.2008 11:25 13,5 C 76 % 1029,5 hPa 0,0 l/m 23,0 km/h (4 Bft) W-SW 250 0 min 0 W/m 9,4 C 7,0 C 23,0 km/h (4 Bft)
10.10.2008 11:30 13,8 C 76 % 1029,5 hPa 0,0 l/m 24,8 km/h (4 Bft) W 260 0 min 0 W/m 9,6 C 7,0 C 24,8 km/h (4 Bft)
10.10.2008 11:36 13,8 C 76 % 1029,5 hPa 0,0 l/m 22,9 km/h (4 Bft) W 260 0 min 0 W/m 9,6 C 7,5 C 22,9 km/h (4 Bft)
10.10.2008 11:41 13,9 C 77 % 1030,5 hPa 0,0 l/m 21,1 km/h (4 Bft) W-SW 250 0 min 0 W/m 9,9 C 8,0 C 21,1 km/h (4 Bft)
10.10.2008 11:46 14,3 C 75 % 1029,5 hPa 0,0 l/m 23,2 km/h (4 Bft) W-SW 250 0 min 0 W/m 9,9 C 8,1 C 23,2 km/h (4 Bft)
10.10.2008 11:50 14,4 C 75 % 1029,5 hPa 0,0 l/m 25,7 km/h (4 Bft) W-SW 245 0 min 0 W/m 10,0 C 7,6 C 25,7 km/h (4 Bft)
10.10.2008 11:55 14,3 C 75 % 1029,5 hPa 0,0 l/m 26,6 km/h (4 Bft) W-SW 255 0 min 0 W/m 9,9 C 7,3 C 26,6 km/h (4 Bft)
10.10.2008 12:00 14,4 C 75 % 1029,5 hPa 0,0 l/m 20,4 km/h (4 Bft) W-SW 250 0 min 0 W/m 10,0 C 8,9 C 20,4 km/h (4 Bft)
10.10.2008 12:05 14,5 C 75 % 1029,5 hPa 0,0 l/m 23,2 km/h (4 Bft) W 260 0 min 0 W/m 10,1 C 8,3 C 23,2 km/h (4 Bft)
10.10.2008 12:10 14,6 C 75 % 1029,5 hPa 0,0 l/m 23,2 km/h (4 Bft) W-SW 245 0 min 0 W/m 10,2 C 8,5 C 23,2 km/h (4 Bft)
10.10.2008 12:16 14,6 C 74 % 1029,5 hPa 0,0 l/m 23,7 km/h (4 Bft) W-SW 250 0 min 0 W/m 10,0 C 8,3 C 23,7 km/h (4 Bft)
10.10.2008 12:21 14,7 C 74 % 1029,5 hPa 0,0 l/m 29,8 km/h (5 Bft) W-SW 255 0 min 0 W/m 10,1 C 7,3 C 29,8 km/h (5 Bft)
10.10.2008 12:25 14,7 C 74 % 1029,5 hPa 0,0 l/m 26,2 km/h (4 Bft) W 260 0 min 0 W/m 10,1 C 8,0 C 26,2 km/h (4 Bft)
10.10.2008 12:31 15,0 C 73 % 1029,5 hPa 0,0 l/m 19,5 km/h (3 Bft) W-SW 250 0 min 0 W/m 10,2 C 9,9 C 19,5 km/h (3 Bft)
10.10.2008 12:35 15,0 C 73 % 1029,5 hPa 0,0 l/m 23,0 km/h (4 Bft) W-SW 255 0 min 0 W/m 10,2 C 9,0 C 23,0 km/h (4 Bft)
10.10.2008 12:40 15,0 C 72 % 1029,5 hPa 0,0 l/m 27,1 km/h (5 Bft) W-SW 245 0 min 0 W/m 10,0 C 8,2 C 27,1 km/h (5 Bft)
10.10.2008 12:46 15,0 C 72 % 1029,5 hPa 0,0 l/m 24,3 km/h (4 Bft) W-SW 255 0 min 0 W/m 10,0 C 8,8 C 24,3 km/h (4 Bft)
10.10.2008 12:50 15,0 C 72 % 1029,5 hPa 0,0 l/m 20,2 km/h (4 Bft) W-SW 255 0 min 0 W/m 10,0 C 9,7 C 20,2 km/h (4 Bft)
10.10.2008 12:55 15,0 C 71 % 1029,5 hPa 0,0 l/m 22,6 km/h (4 Bft) W-SW 250 0 min 0 W/m 9,8 C 9,1 C 22,6 km/h (4 Bft)
10.10.2008 13:00 15,0 C 72 % 1029,5 hPa 0,0 l/m 29,0 km/h (5 Bft) W 260 0 min 0 W/m 10,0 C 7,9 C 29,0 km/h (5 Bft)
10.10.2008 13:05 15,1 C 71 % 1029,5 hPa 0,0 l/m 22,7 km/h (4 Bft) W 260 0 min 0 W/m 9,9 C 9,2 C 22,7 km/h (4 Bft)
10.10.2008 13:10 15,2 C 72 % 1029,5 hPa 0,0 l/m 22,1 km/h (4 Bft) W-SW 250 0 min 0 W/m 10,2 C 9,5 C 22,1 km/h (4 Bft)
10.10.2008 13:15 15,3 C 71 % 1029,5 hPa 0,0 l/m 25,3 km/h (4 Bft) W-SW 255 0 min 0 W/m 10,1 C 9,0 C 25,3 km/h (4 Bft)
10.10.2008 13:20 15,1 C 72 % 1029,5 hPa 0,0 l/m 26,1 km/h (4 Bft) W-SW 255 0 min 0 W/m 10,1 C 8,5 C 26,1 km/h (4 Bft)
10.10.2008 13:26 15,1 C 72 % 1029,5 hPa 0,0 l/m 24,8 km/h (4 Bft) W-SW 250 0 min 0 W/m 10,1 C 8,8 C 24,8 km/h (4 Bft)
10.10.2008 13:31 15,0 C 71 % 1029,5 hPa 0,0 l/m 26,8 km/h (4 Bft) W-SW 250 0 min 0 W/m 9,8 C 8,3 C 26,8 km/h (4 Bft)
10.10.2008 13:36 15,0 C 72 % 1028,5 hPa 0,0 l/m 31,8 km/h (5 Bft) W-SW 255 0 min 0 W/m 10,0 C 7,4 C 31,8 km/h (5 Bft)
10.10.2008 13:40 15,0 C 72 % 1028,5 hPa 0,0 l/m 27,5 km/h (5 Bft) W-SW 255 0 min 0 W/m 10,0 C 8,1 C 27,5 km/h (5 Bft)
10.10.2008 13:45 15,0 C 73 % 1028,5 hPa 0,0 l/m 19,0 km/h (3 Bft) W-SW 255 0 min 0 W/m 10,2 C 10,0 C 19,0 km/h (3 Bft)
10.10.2008 13:50 15,2 C 72 % 1029,5 hPa 0,0 l/m 26,9 km/h (4 Bft) W 260 0 min 0 W/m 10,2 C 8,5 C 26,9 km/h (4 Bft)
10.10.2008 13:55 15,2 C 71 % 1029,5 hPa 0,0 l/m 28,2 km/h (5 Bft) W 265 0 min 0 W/m 10,0 C 8,3 C 28,2 km/h (5 Bft)
10.10.2008 14:01 15,2 C 72 % 1029,5 hPa 0,0 l/m 29,2 km/h (5 Bft) W 260 0 min 0 W/m 10,2 C 8,1 C 29,2 km/h (5 Bft)
10.10.2008 14:05 15,4 C 71 % 1028,5 hPa 0,0 l/m 28,2 km/h (5 Bft) W-SW 255 0 min 0 W/m 10,2 C 8,6 C 28,2 km/h (5 Bft)
10.10.2008 14:10 15,3 C 71 % 1028,5 hPa 0,0 l/m 27,6 km/h (5 Bft) W-SW 250 0 min 0 W/m 10,1 C 8,5 C 27,6 km/h (5 Bft)
10.10.2008 14:15 15,3 C 71 % 1028,5 hPa 0,0 l/m 27,7 km/h (5 Bft) W-SW 250 0 min 0 W/m 10,1 C 8,5 C 27,7 km/h (5 Bft)
10.10.2008 14:21 15,2 C 71 % 1028,5 hPa 0,0 l/m 29,8 km/h (5 Bft) W 260 0 min 0 W/m 10,0 C 8,0 C 29,8 km/h (5 Bft)
10.10.2008 14:26 15,2 C 71 % 1028,5 hPa 0,0 l/m 30,9 km/h (5 Bft) W-SW 255 0 min 0 W/m 10,0 C 7,8 C 30,9 km/h (5 Bft)
10.10.2008 14:31 15,2 C 71 % 1028,5 hPa 0,0 l/m 33,5 km/h (5 Bft) W 260 0 min 0 W/m 10,0 C 7,4 C 33,5 km/h (5 Bft)
10.10.2008 14:35 15,2 C 71 % 1028,5 hPa 0,0 l/m 32,4 km/h (5 Bft) W-SW 255 0 min 0 W/m 10,0 C 7,6 C 32,4 km/h (5 Bft)
10.10.2008 14:40 15,5 C 73 % 1028,5 hPa 0,0 l/m 22,2 km/h (4 Bft) W-SW 250 0 min 0 W/m 10,7 C 9,9 C 22,2 km/h (4 Bft)
10.10.2008 14:45 15,7 C 72 % 1028,5 hPa 0,0 l/m 29,3 km/h (5 Bft) W 260 0 min 0 W/m 10,7 C 8,8 C 29,3 km/h (5 Bft)
10.10.2008 14:50 15,8 C 71 % 1028,5 hPa 0,0 l/m 25,9 km/h (4 Bft) W-SW 250 0 min 0 W/m 10,6 C 9,5 C 25,9 km/h (4 Bft)
10.10.2008 14:55 15,7 C 70 % 1028,5 hPa 0,0 l/m 33,9 km/h (5 Bft) W-SW 250 0 min 0 W/m 10,2 C 8,1 C 33,9 km/h (5 Bft)
10.10.2008 15:01 15,6 C 71 % 1028,5 hPa 0,0 l/m 26,0 km/h (4 Bft) W 260 0 min 0 W/m 10,4 C 9,2 C 26,0 km/h (4 Bft)
10.10.2008 15:05 15,4 C 71 % 1028,5 hPa 0,0 l/m 29,1 km/h (5 Bft) W-SW 255 0 min 0 W/m 10,2 C 8,4 C 29,1 km/h (5 Bft)
10.10.2008 15:10 15,3 C 71 % 1028,5 hPa 0,0 l/m 24,0 km/h (4 Bft) W 260 0 min 0 W/m 10,1 C 9,2 C 24,0 km/h (4 Bft)
10.10.2008 15:16 15,2 C 71 % 1027,5 hPa 0,0 l/m 34,5 km/h (5 Bft) W-SW 255 0 min 0 W/m 10,0 C 7,3 C 34,5 km/h (5 Bft)
10.10.2008 15:21 15,1 C 72 % 1027,5 hPa 0,0 l/m 30,2 km/h (5 Bft) W-SW 250 0 min 0 W/m 10,1 C 7,8 C 30,2 km/h (5 Bft)
10.10.2008 15:26 15,0 C 72 % 1027,5 hPa 0,0 l/m 26,5 km/h (4 Bft) W-SW 240 0 min 0 W/m 10,0 C 8,3 C 26,5 km/h (4 Bft)
10.10.2008 15:31 15,0 C 72 % 1027,5 hPa 0,0 l/m 28,3 km/h (5 Bft) W-SW 250 0 min 0 W/m 10,0 C 8,0 C 28,3 km/h (5 Bft)
10.10.2008 15:35 15,0 C 73 % 1027,5 hPa 0,0 l/m 16,1 km/h (3 Bft) W 260 0 min 0 W/m 10,2 C 10,8 C 16,1 km/h (3 Bft)
10.10.2008 15:40 15,0 C 73 % 1027,5 hPa 0,0 l/m 24,6 km/h (4 Bft) W 265 0 min 0 W/m 10,2 C 8,7 C 24,6 km/h (4 Bft)
10.10.2008 15:45 15,0 C 73 % 1027,5 hPa 0,0 l/m 21,9 km/h (4 Bft) W-SW 255 0 min 0 W/m 10,2 C 9,3 C 21,9 km/h (4 Bft)
10.10.2008 15:50 15,0 C 73 % 1027,5 hPa 0,0 l/m 23,3 km/h (4 Bft) W-SW 245 0 min 0 W/m 10,2 C 9,0 C 23,3 km/h (4 Bft)
10.10.2008 15:56 15,0 C 73 % 1027,5 hPa 0,0 l/m 24,4 km/h (4 Bft) W-SW 245 0 min 0 W/m 10,2 C 8,7 C 24,4 km/h (4 Bft)
10.10.2008 16:01 15,0 C 72 % 1027,5 hPa 0,0 l/m 19,6 km/h (3 Bft) W 265 0 min 0 W/m 10,0 C 9,8 C 19,6 km/h (3 Bft)
10.10.2008 16:05 15,0 C 73 % 1027,5 hPa 0,0 l/m 20,1 km/h (4 Bft) W-SW 245 0 min 0 W/m 10,2 C 9,7 C 20,1 km/h (4 Bft)
10.10.2008 16:10 15,0 C 73 % 1027,5 hPa 0,0 l/m 18,3 km/h (3 Bft) W-SW 250 0 min 0 W/m 10,2 C 10,2 C 18,3 km/h (3 Bft)
10.10.2008 16:16 15,0 C 73 % 1027,5 hPa 0,0 l/m 18,8 km/h (3 Bft) W-SW 255 0 min 0 W/m 10,2 C 10,1 C 18,8 km/h (3 Bft)
10.10.2008 16:21 15,0 C 73 % 1027,5 hPa 0,0 l/m 26,1 km/h (4 Bft) W 260 0 min 0 W/m 10,2 C 8,4 C 26,1 km/h (4 Bft)
10.10.2008 16:25 15,0 C 73 % 1027,5 hPa 0,0 l/m 19,0 km/h (3 Bft) W-SW 255 0 min 0 W/m 10,2 C 10,0 C 19,0 km/h (3 Bft)
10.10.2008 16:30 15,0 C 73 % 1027,5 hPa 0,0 l/m 16,1 km/h (3 Bft) W-SW 245 0 min 0 W/m 10,2 C 10,8 C 16,1 km/h (3 Bft)
10.10.2008 16:35 15,0 C 73 % 1027,5 hPa 0,0 l/m 16,6 km/h (3 Bft) W-SW 250 0 min 0 W/m 10,2 C 10,7 C 16,6 km/h (3 Bft)
10.10.2008 16:40 15,0 C 72 % 1027,5 hPa 0,0 l/m 17,6 km/h (3 Bft) W-SW 255 0 min 0 W/m 10,0 C 10,4 C 17,6 km/h (3 Bft)
10.10.2008 16:46 14,8 C 73 % 1027,5 hPa 0,0 l/m 20,6 km/h (4 Bft) W 260 0 min 0 W/m 10,0 C 9,3 C 20,6 km/h (4 Bft)
10.10.2008 16:51 14,8 C 73 % 1027,5 hPa 0,0 l/m 14,3 km/h (3 Bft) W-SW 255 0 min 0 W/m 10,0 C 11,2 C 14,3 km/h (3 Bft)
10.10.2008 16:56 14,7 C 72 % 1027,5 hPa 0,0 l/m 20,6 km/h (4 Bft) W-SW 255 0 min 0 W/m 9,7 C 9,2 C 20,6 km/h (4 Bft)
10.10.2008 17:00 14,6 C 73 % 1027,5 hPa 0,0 l/m 17,1 km/h (3 Bft) W 260 0 min 0 W/m 9,8 C 10,0 C 17,1 km/h (3 Bft)
10.10.2008 17:06 14,6 C 73 % 1027,5 hPa 0,0 l/m 13,3 km/h (3 Bft) W-SW 255 0 min 0 W/m 9,8 C 11,3 C 13,3 km/h (3 Bft)
10.10.2008 17:11 14,5 C 73 % 1027,5 hPa 0,0 l/m 14,8 km/h (3 Bft) W-SW 255 0 min 0 W/m 9,7 C 10,7 C 14,8 km/h (3 Bft)
10.10.2008 17:15 14,4 C 73 % 1027,5 hPa 0,0 l/m 15,9 km/h (3 Bft) W 265 0 min 0 W/m 9,6 C 10,2 C 15,9 km/h (3 Bft)
10.10.2008 17:20 14,4 C 73 % 1027,5 hPa 0,0 l/m 15,9 km/h (3 Bft) W 265 0 min 0 W/m 9,6 C 10,2 C 15,9 km/h (3 Bft)
10.10.2008 17:25 14,3 C 73 % 1027,5 hPa 0,0 l/m 13,6 km/h (3 Bft) W-SW 245 0 min 0 W/m 9,5 C 10,8 C 13,6 km/h (3 Bft)
10.10.2008 17:30 14,2 C 73 % 1027,5 hPa 0,0 l/m 17,4 km/h (3 Bft) W-SW 245 0 min 0 W/m 9,4 C 9,4 C 17,4 km/h (3 Bft)
10.10.2008 17:36 14,2 C 73 % 1026,5 hPa 0,0 l/m 17,6 km/h (3 Bft) W-SW 250 0 min 0 W/m 9,4 C 9,4 C 17,6 km/h (3 Bft)
10.10.2008 17:41 14,0 C 73 % 1026,5 hPa 0,0 l/m 16,3 km/h (3 Bft) W 260 0 min 0 W/m 9,2 C 9,5 C 16,3 km/h (3 Bft)
10.10.2008 17:46 14,0 C 74 % 1026,5 hPa 0,0 l/m 13,8 km/h (3 Bft) W-SW 255 0 min 0 W/m 9,4 C 10,4 C 13,8 km/h (3 Bft)
10.10.2008 17:50 13,9 C 74 % 1026,5 hPa 0,0 l/m 13,7 km/h (3 Bft) W-SW 250 0 min 0 W/m 9,3 C 10,3 C 13,7 km/h (3 Bft)
10.10.2008 17:55 13,8 C 75 % 1027,5 hPa 0,0 l/m 12,6 km/h (3 Bft) W 260 0 min 0 W/m 9,4 C 10,6 C 12,6 km/h (3 Bft)
10.10.2008 18:00 13,6 C 75 % 1027,5 hPa 0,0 l/m 12,0 km/h (2 Bft) W-SW 255 0 min 0 W/m 9,3 C 10,7 C 12,0 km/h (2 Bft)
10.10.2008 18:06 13,6 C 75 % 1027,5 hPa 0,0 l/m 12,9 km/h (3 Bft) W-SW 255 0 min 0 W/m 9,3 C 10,3 C 12,9 km/h (3 Bft)
10.10.2008 18:10 13,5 C 75 % 1027,5 hPa 0,0 l/m 12,9 km/h (3 Bft) W-SW 255 0 min 0 W/m 9,2 C 10,2 C 12,9 km/h (3 Bft)
10.10.2008 18:15 13,3 C 76 % 1027,5 hPa 0,0 l/m 9,3 km/h (2 Bft) W-SW 250 0 min 0 W/m 9,2 C 11,6 C 9,3 km/h (2 Bft)
10.10.2008 18:20 13,1 C 77 % 1027,5 hPa 0,0 l/m 12,0 km/h (2 Bft) W-SW 245 0 min 0 W/m 9,2 C 10,1 C 12,0 km/h (2 Bft)
10.10.2008 18:25 13,1 C 77 % 1027,5 hPa 0,0 l/m 13,1 km/h (3 Bft) W-SW 245 0 min 0 W/m 9,2 C 9,6 C 13,1 km/h (3 Bft)
10.10.2008 18:31 12,9 C 77 % 1026,5 hPa 0,0 l/m 12,1 km/h (2 Bft) W-SW 250 0 min 0 W/m 9,0 C 9,8 C 12,1 km/h (2 Bft)
10.10.2008 18:36 12,7 C 78 % 1026,5 hPa 0,0 l/m 13,6 km/h (3 Bft) W-SW 250 0 min 0 W/m 9,0 C 8,9 C 13,6 km/h (3 Bft)
10.10.2008 18:40 12,7 C 78 % 1026,5 hPa 0,0 l/m 10,0 km/h (2 Bft) W-SW 245 0 min 0 W/m 9,0 C 10,6 C 10,0 km/h (2 Bft)
10.10.2008 18:45 12,6 C 79 % 1026,5 hPa 0,0 l/m 15,0 km/h (3 Bft) W-SW 245 0 min 0 W/m 9,1 C 8,3 C 15,0 km/h (3 Bft)
10.10.2008 18:50 12,5 C 79 % 1026,5 hPa 0,0 l/m 13,0 km/h (3 Bft) W-SW 250 0 min 0 W/m 9,0 C 9,0 C 13,0 km/h (3 Bft)
10.10.2008 18:55 12,4 C 80 % 1026,5 hPa 0,0 l/m 12,5 km/h (2 Bft) W-SW 250 0 min 0 W/m 9,0 C 9,1 C 12,5 km/h (2 Bft)
10.10.2008 19:01 12,4 C 80 % 1026,5 hPa 0,0 l/m 14,8 km/h (3 Bft) W-SW 250 0 min 0 W/m 9,0 C 8,1 C 14,8 km/h (3 Bft)
10.10.2008 19:05 12,4 C 80 % 1026,5 hPa 0,0 l/m 11,9 km/h (2 Bft) W-SW 250 0 min 0 W/m 9,0 C 9,3 C 11,9 km/h (2 Bft)
10.10.2008 19:10 12,3 C 80 % 1026,5 hPa 0,0 l/m 11,3 km/h (2 Bft) W-SW 240 0 min 0 W/m 8,9 C 9,5 C 11,3 km/h (2 Bft)
10.10.2008 19:15 12,3 C 80 % 1026,5 hPa 0,0 l/m 10,1 km/h (2 Bft) W-SW 240 0 min 0 W/m 8,9 C 10,1 C 10,1 km/h (2 Bft)
10.10.2008 19:21 12,2 C 81 % 1026,5 hPa 0,0 l/m 13,8 km/h (3 Bft) W-SW 245 0 min 0 W/m 9,0 C 8,3 C 13,8 km/h (3 Bft)
10.10.2008 19:26 12,2 C 81 % 1026,5 hPa 0,0 l/m 13,3 km/h (3 Bft) W-SW 250 0 min 0 W/m 9,0 C 8,5 C 13,3 km/h (3 Bft)
10.10.2008 19:31 12,2 C 81 % 1026,5 hPa 0,0 l/m 16,3 km/h (3 Bft) W-SW 250 0 min 0 W/m 9,0 C 7,3 C 16,3 km/h (3 Bft)
10.10.2008 19:35 12,1 C 81 % 1026,5 hPa 0,0 l/m 16,1 km/h (3 Bft) W-SW 250 0 min 0 W/m 8,9 C 7,3 C 16,1 km/h (3 Bft)
10.10.2008 19:40 12,1 C 81 % 1026,5 hPa 0,0 l/m 14,7 km/h (3 Bft) W-SW 255 0 min 0 W/m 8,9 C 7,8 C 14,7 km/h (3 Bft)
10.10.2008 19:45 12,1 C 82 % 1026,5 hPa 0,0 l/m 14,6 km/h (3 Bft) W 265 0 min 0 W/m 9,1 C 7,8 C 14,6 km/h (3 Bft)
10.10.2008 19:51 12,1 C 81 % 1026,5 hPa 0,0 l/m 15,5 km/h (3 Bft) W-SW 255 0 min 0 W/m 8,9 C 7,5 C 15,5 km/h (3 Bft)
10.10.2008 19:56 12,1 C 81 % 1026,5 hPa 0,0 l/m 16,6 km/h (3 Bft) W-SW 255 0 min 0 W/m 8,9 C 7,1 C 16,6 km/h (3 Bft)
10.10.2008 20:01 12,2 C 80 % 1026,5 hPa 0,0 l/m 16,6 km/h (3 Bft) W-SW 255 0 min 0 W/m 8,9 C 7,2 C 16,6 km/h (3 Bft)
10.10.2008 20:05 12,2 C 80 % 1026,5 hPa 0,0 l/m 17,2 km/h (3 Bft) W 260 0 min 0 W/m 8,9 C 7,0 C 17,2 km/h (3 Bft)
10.10.2008 20:11 12,2 C 80 % 1026,5 hPa 0,0 l/m 17,0 km/h (3 Bft) W 260 0 min 0 W/m 8,9 C 7,1 C 17,0 km/h (3 Bft)
10.10.2008 20:16 12,3 C 79 % 1026,5 hPa 0,0 l/m 21,6 km/h (4 Bft) W 260 0 min 0 W/m 8,8 C 5,8 C 21,6 km/h (4 Bft)
10.10.2008 20:21 12,4 C 79 % 1026,5 hPa 0,0 l/m 18,4 km/h (3 Bft) W 265 0 min 0 W/m 8,9 C 6,9 C 18,4 km/h (3 Bft)
10.10.2008 20:25 12,4 C 79 % 1026,5 hPa 0,0 l/m 17,3 km/h (3 Bft) W-SW 250 0 min 0 W/m 8,9 C 7,2 C 17,3 km/h (3 Bft)
10.10.2008 20:30 12,4 C 78 % 1026,5 hPa 0,0 l/m 19,0 km/h (3 Bft) W 260 0 min 0 W/m 8,7 C 6,7 C 19,0 km/h (3 Bft)
10.10.2008 20:35 12,4 C 78 % 1026,5 hPa 0,0 l/m 22,0 km/h (4 Bft) W-SW 255 0 min 0 W/m 8,7 C 5,8 C 22,0 km/h (4 Bft)
10.10.2008 20:41 12,4 C 79 % 1026,5 hPa 0,0 l/m 24,5 km/h (4 Bft) W-SW 255 0 min 0 W/m 8,9 C 5,2 C 24,5 km/h (4 Bft)
10.10.2008 20:46 12,4 C 79 % 1026,5 hPa 0,0 l/m 21,1 km/h (4 Bft) W-SW 250 0 min 0 W/m 8,9 C 6,1 C 21,1 km/h (4 Bft)
10.10.2008 20:51 12,4 C 79 % 1026,5 hPa 0,0 l/m 20,4 km/h (4 Bft) W-SW 240 0 min 0 W/m 8,9 C 6,3 C 20,4 km/h (4 Bft)
10.10.2008 20:55 12,4 C 79 % 1026,5 hPa 0,0 l/m 21,4 km/h (4 Bft) W 260 0 min 0 W/m 8,9 C 6,0 C 21,4 km/h (4 Bft)
10.10.2008 21:00 12,4 C 79 % 1026,5 hPa 0,0 l/m 19,2 km/h (3 Bft) W-SW 250 0 min 0 W/m 8,9 C 6,6 C 19,2 km/h (3 Bft)
10.10.2008 21:06 12,4 C 79 % 1026,5 hPa 0,0 l/m 23,9 km/h (4 Bft) W-SW 255 0 min 0 W/m 8,9 C 5,3 C 23,9 km/h (4 Bft)
10.10.2008 21:11 12,4 C 79 % 1026,5 hPa 0,0 l/m 25,6 km/h (4 Bft) W-SW 250 0 min 0 W/m 8,9 C 4,9 C 25,6 km/h (4 Bft)
10.10.2008 21:15 12,4 C 79 % 1026,5 hPa 0,0 l/m 22,0 km/h (4 Bft) W 260 0 min 0 W/m 8,9 C 5,8 C 22,0 km/h (4 Bft)
10.10.2008 21:20 12,3 C 80 % 1026,5 hPa 0,0 l/m 22,0 km/h (4 Bft) W 260 0 min 0 W/m 8,9 C 5,7 C 22,0 km/h (4 Bft)
10.10.2008 21:25 12,3 C 80 % 1026,5 hPa 0,0 l/m 22,7 km/h (4 Bft) W-SW 250 0 min 0 W/m 8,9 C 5,5 C 22,7 km/h (4 Bft)
10.10.2008 21:31 12,3 C 80 % 1026,5 hPa 0,0 l/m 26,1 km/h (4 Bft) W-SW 255 0 min 0 W/m 8,9 C 4,7 C 26,1 km/h (4 Bft)
10.10.2008 21:36 12,4 C 79 % 1026,5 hPa 0,0 l/m 29,9 km/h (5 Bft) W-SW 245 0 min 0 W/m 8,9 C 4,1 C 29,9 km/h (5 Bft)
10.10.2008 21:41 12,4 C 79 % 1026,5 hPa 0,0 l/m 24,1 km/h (4 Bft) W 265 0 min 0 W/m 8,9 C 5,3 C 24,1 km/h (4 Bft)
10.10.2008 21:45 12,4 C 80 % 1026,5 hPa 0,0 l/m 22,3 km/h (4 Bft) W 260 0 min 0 W/m 9,0 C 5,8 C 22,3 km/h (4 Bft)
10.10.2008 21:50 12,3 C 80 % 1026,5 hPa 0,0 l/m 22,9 km/h (4 Bft) W-SW 255 0 min 0 W/m 8,9 C 5,5 C 22,9 km/h (4 Bft)
10.10.2008 21:55 12,3 C 81 % 1026,5 hPa 0,0 l/m 23,0 km/h (4 Bft) W-SW 250 0 min 0 W/m 9,1 C 5,4 C 23,0 km/h (4 Bft)
10.10.2008 22:00 12,3 C 81 % 1026,5 hPa 0,0 l/m 34,3 km/h (5 Bft) W 260 0 min 0 W/m 9,1 C 3,1 C 34,3 km/h (5 Bft)
10.10.2008 22:05 12,2 C 81 % 1026,5 hPa 0,0 l/m 28,3 km/h (5 Bft) W 265 0 min 0 W/m 9,0 C 4,1 C 28,3 km/h (5 Bft)
10.10.2008 22:10 12,2 C 81 % 1026,5 hPa 0,0 l/m 23,9 km/h (4 Bft) W-SW 255 0 min 0 W/m 9,0 C 5,1 C 23,9 km/h (4 Bft)
10.10.2008 22:15 12,2 C 82 % 1026,5 hPa 0,0 l/m 25,0 km/h (4 Bft) W-SW 255 0 min 0 W/m 9,2 C 4,8 C 25,0 km/h (4 Bft)
10.10.2008 22:21 12,2 C 82 % 1026,5 hPa 0,0 l/m 26,8 km/h (4 Bft) W 260 0 min 0 W/m 9,2 C 4,4 C 26,8 km/h (4 Bft)
10.10.2008 22:26 12,2 C 82 % 1026,5 hPa 0,0 l/m 24,1 km/h (4 Bft) W-SW 255 0 min 0 W/m 9,2 C 5,0 C 24,1 km/h (4 Bft)
10.10.2008 22:31 12,2 C 82 % 1026,5 hPa 0,0 l/m 30,4 km/h (5 Bft) W 265 0 min 0 W/m 9,2 C 3,7 C 30,4 km/h (5 Bft)
10.10.2008 22:35 12,1 C 82 % 1026,5 hPa 0,0 l/m 24,2 km/h (4 Bft) W-SW 255 0 min 0 W/m 9,1 C 4,9 C 24,2 km/h (4 Bft)
10.10.2008 22:40 12,1 C 83 % 1026,5 hPa 0,0 l/m 25,1 km/h (4 Bft) W-SW 255 0 min 0 W/m 9,3 C 4,7 C 25,1 km/h (4 Bft)
10.10.2008 22:45 12,0 C 83 % 1026,5 hPa 0,0 l/m 27,6 km/h (5 Bft) W 265 0 min 0 W/m 9,2 C 4,0 C 27,6 km/h (5 Bft)
10.10.2008 22:50 12,0 C 84 % 1026,5 hPa 0,0 l/m 28,0 km/h (5 Bft) W 265 0 min 0 W/m 9,4 C 3,9 C 28,0 km/h (5 Bft)
10.10.2008 22:56 12,0 C 84 % 1026,5 hPa 0,0 l/m 28,3 km/h (5 Bft) W 260 0 min 0 W/m 9,4 C 3,8 C 28,3 km/h (5 Bft)
10.10.2008 23:01 12,0 C 84 % 1026,5 hPa 0,0 l/m 25,8 km/h (4 Bft) W 265 0 min 0 W/m 9,4 C 4,4 C 25,8 km/h (4 Bft)
10.10.2008 23:05 12,0 C 84 % 1026,5 hPa 0,0 l/m 21,5 km/h (4 Bft) W 265 0 min 0 W/m 9,4 C 5,4 C 21,5 km/h (4 Bft)
10.10.2008 23:11 11,9 C 85 % 1026,5 hPa 0,0 l/m 25,1 km/h (4 Bft) W 265 0 min 0 W/m 9,5 C 4,4 C 25,1 km/h (4 Bft)
10.10.2008 23:16 11,8 C 85 % 1026,5 hPa 0,0 l/m 24,0 km/h (4 Bft) W 260 0 min 0 W/m 9,4 C 4,5 C 24,0 km/h (4 Bft)
10.10.2008 23:21 11,8 C 85 % 1026,5 hPa 0,0 l/m 20,1 km/h (4 Bft) W 270 0 min 0 W/m 9,4 C 5,6 C 20,1 km/h (4 Bft)
10.10.2008 23:25 11,8 C 85 % 1026,5 hPa 0,0 l/m 21,9 km/h (4 Bft) W 265 0 min 0 W/m 9,4 C 5,1 C 21,9 km/h (4 Bft)
10.10.2008 23:30 11,7 C 86 % 1026,5 hPa 0,0 l/m 22,8 km/h (4 Bft) W 260 0 min 0 W/m 9,4 C 4,7 C 22,8 km/h (4 Bft)
10.10.2008 23:35 11,7 C 86 % 1026,5 hPa 0,0 l/m 22,2 km/h (4 Bft) W 260 0 min 0 W/m 9,4 C 4,9 C 22,2 km/h (4 Bft)
10.10.2008 23:41 11,6 C 86 % 1026,5 hPa 0,0 l/m 25,7 km/h (4 Bft) W 260 0 min 0 W/m 9,3 C 3,8 C 25,7 km/h (4 Bft)
10.10.2008 23:46 11,6 C 87 % 1026,5 hPa 0,0 l/m 21,5 km/h (4 Bft) W-SW 250 0 min 0 W/m 9,5 C 4,9 C 21,5 km/h (4 Bft)
10.10.2008 23:51 11,6 C 87 % 1026,5 hPa 0,0 l/m 18,6 km/h (3 Bft) W 265 0 min 0 W/m 9,5 C 5,8 C 18,6 km/h (3 Bft)
10.10.2008 23:55 11,6 C 87 % 1026,5 hPa 0,0 l/m 16,6 km/h (3 Bft) W 260 0 min 0 W/m 9,5 C 6,5 C 16,6 km/h (3 Bft)
_ Min-Zeit 07:10 14:55 17:36 - 00:26 - - - - 07:10 22:00 00:26
Minimum _ 7,6 C 70 % 1026,5 hPa - 0,0 km/h (0 Bft) - - - - 6,9 C 3,1 C 0,0 km/h (0 Bft)
_ Max-Zeit 14:50 07:20 02:16 00:01 15:16 - - 00:01 00:01 14:40 18:15 15:16
Maximum _ 15,8 C 96 % 1031,5 hPa 0,0 l/m 34,5 km/h
W-SW (5 Bft)
- - 0 min 0 W/m 10,7 C 11,6 C 34,5 km/h
W-SW (5 Bft)
Durchschnitt _ 11,6 C 84 % 1028,9 hPa #0,0 l/m 15,1 km/h (3 Bft) W-SW - #0 min. 0 W/m 8,8 C 7,8 C 15,1 km/h (3 Bft)
copyright by Holger Just